Time,TemperatureF,DewpointF,PressureIn,WindDirection,WindDirectionDegrees,WindSpeedMPH,WindSpeedGustMPH,Humidity,HourlyPrecipIn,Conditions,Clouds,dailyrainin,SolarRadiationWatts/m^2,SoftwareType,DateUTC
2013-01-19 00:02:00,58.0,19.0,-100.00,North,9,7.0,9.0,22,0.00,,,0.00,1.000000,,2013-01-19 07:02:00,
2013-01-19 00:12:00,58.0,19.0,-100.00,North,9,7.0,9.0,22,0.00,,,0.00,1.000000,,2013-01-19 07:12:00,
2013-01-19 00:33:00,51.0,24.0,-100.00,WNW,298,2.0,13.0,34,0.00,,,0.00,1.000000,,2013-01-19 07:33:00,
2013-01-19 00:43:00,51.0,24.0,-100.00,WNW,298,2.0,13.0,34,0.00,,,0.00,1.000000,,2013-01-19 07:43:00,
2013-01-19 00:52:00,51.0,24.0,-100.00,WNW,298,2.0,13.0,34,0.00,,,0.00,1.000000,,2013-01-19 07:52:00,
2013-01-19 01:02:00,51.0,24.0,-100.00,WNW,298,2.0,13.0,34,0.00,,,0.00,1.000000,,2013-01-19 08:02:00,
2013-01-19 01:12:00,51.0,24.0,-100.00,WNW,298,2.0,13.0,34,0.00,,,0.00,1.000000,,2013-01-19 08:12:00,
2013-01-19 01:43:00,51.0,21.0,-100.00,West,271,1.0,5.0,30,0.00,,,-99.99,1.000000,,2013-01-19 08:43:00,
2013-01-19 01:53:00,51.0,21.0,-100.00,West,271,1.0,5.0,30,0.00,,,-99.99,1.000000,,2013-01-19 08:53:00,
2013-01-19 02:02:00,51.0,21.0,-100.00,West,271,1.0,5.0,30,0.00,,,-99.99,1.000000,,2013-01-19 09:02:00,
2013-01-19 02:12:00,51.0,21.0,-100.00,West,271,1.0,5.0,30,0.00,,,-99.99,1.000000,,2013-01-19 09:12:00,
2013-01-19 02:43:00,56.0,18.0,-100.00,North,11,5.0,8.0,22,0.00,,,0.00,1.000000,,2013-01-19 09:43:00,
2013-01-19 02:52:00,56.0,18.0,-100.00,North,11,5.0,8.0,22,0.00,,,0.00,1.000000,,2013-01-19 09:52:00,
2013-01-19 03:02:00,56.0,18.0,-100.00,North,11,5.0,8.0,22,0.00,,,0.00,1.000000,,2013-01-19 10:02:00,
2013-01-19 03:12:00,56.0,18.0,-100.00,North,11,5.0,8.0,22,0.00,,,0.00,1.000000,,2013-01-19 10:12:00,
2013-01-19 03:43:00,55.0,18.0,-100.00,North,9,6.0,8.0,23,0.00,,,0.00,1.000000,,2013-01-19 10:43:00,
2013-01-19 03:53:00,55.0,18.0,-100.00,North,9,6.0,8.0,23,0.00,,,0.00,1.000000,,2013-01-19 10:53:00,
2013-01-19 04:02:00,55.0,18.0,-100.00,North,9,6.0,8.0,23,0.00,,,0.00,1.000000,,2013-01-19 11:02:00,
2013-01-19 04:12:00,55.0,18.0,-100.00,North,9,6.0,8.0,23,0.00,,,0.00,1.000000,,2013-01-19 11:12:00,
2013-01-19 05:48:00,53.0,17.0,-100.00,NNW,332,1.0,6.0,24,0.00,,,-99.99,1.000000,,2013-01-19 12:48:00,
2013-01-19 06:02:00,53.0,17.0,-100.00,NNW,332,1.0,6.0,24,0.00,,,-99.99,1.000000,,2013-01-19 13:02:00,
2013-01-19 06:12:00,53.0,17.0,-100.00,NNW,332,1.0,6.0,24,0.00,,,-99.99,1.000000,,2013-01-19 13:12:00,
2013-01-19 06:43:00,53.0,17.0,-100.00,North,5,5.0,8.0,24,0.00,,,0.00,1.000000,,2013-01-19 13:43:00,
2013-01-19 06:53:00,53.0,17.0,-100.00,North,5,5.0,8.0,24,0.00,,,0.00,1.000000,,2013-01-19 13:53:00,
2013-01-19 07:02:00,53.0,17.0,-100.00,North,5,5.0,8.0,24,0.00,,,0.00,1.000000,,2013-01-19 14:02:00,
2013-01-19 07:12:00,53.0,17.0,-100.00,North,5,5.0,8.0,24,0.00,,,0.00,1.000000,,2013-01-19 14:12:00,
2013-01-19 07:43:00,53.0,18.0,-100.00,NNW,348,7.0,10.0,25,0.00,,,0.00,1.000000,,2013-01-19 14:43:00,
2013-01-19 07:53:00,53.0,18.0,-100.00,NNW,348,7.0,10.0,25,0.00,,,0.00,1.000000,,2013-01-19 14:53:00,
2013-01-19 08:03:00,53.0,18.0,-100.00,NNW,348,7.0,10.0,25,0.00,,,0.00,1.000000,,2013-01-19 15:03:00,
2013-01-19 08:12:00,53.0,18.0,-100.00,NNW,348,7.0,10.0,25,0.00,,,0.00,1.000000,,2013-01-19 15:12:00,
2013-01-19 08:43:00,55.0,17.0,-100.00,North,360,8.0,13.0,22,0.00,,,0.00,21.000000,,2013-01-19 15:43:00,
2013-01-19 08:53:00,55.0,17.0,-100.00,North,360,8.0,13.0,22,0.00,,,0.00,21.000000,,2013-01-19 15:53:00,
2013-01-19 09:02:00,55.0,17.0,-100.00,North,360,8.0,13.0,22,0.00,,,0.00,21.000000,,2013-01-19 16:02:00,
2013-01-19 09:12:00,55.0,17.0,-100.00,North,360,8.0,13.0,22,0.00,,,0.00,21.000000,,2013-01-19 16:12:00,
2013-01-19 09:33:00,58.0,19.0,-100.00,North,356,6.0,12.0,22,0.00,,,0.00,190.000000,,2013-01-19 16:33:00,
2013-01-19 09:43:00,58.0,19.0,-100.00,North,356,6.0,12.0,22,0.00,,,0.00,190.000000,,2013-01-19 16:43:00,
2013-01-19 09:54:00,58.0,19.0,-100.00,North,356,6.0,12.0,22,0.00,,,0.00,190.000000,,2013-01-19 16:54:00,
2013-01-19 10:02:00,58.0,19.0,-100.00,North,356,6.0,12.0,22,0.00,,,0.00,190.000000,,2013-01-19 17:02:00,
2013-01-19 10:14:00,58.0,19.0,-100.00,North,356,6.0,12.0,22,0.00,,,0.00,190.000000,,2013-01-19 17:14:00,
2013-01-19 10:37:00,63.0,19.0,-100.00,North,5,11.0,19.0,18,0.00,,,0.00,380.000000,,2013-01-19 17:37:00,
2013-01-19 10:50:00,63.0,19.0,-100.00,North,5,11.0,19.0,18,0.00,,,0.00,380.000000,,2013-01-19 17:50:00,
2013-01-19 11:05:00,63.0,19.0,-100.00,North,5,11.0,19.0,18,0.00,,,0.00,380.000000,,2013-01-19 18:05:00,
2013-01-19 11:13:00,63.0,19.0,-100.00,North,5,11.0,19.0,18,0.00,,,0.00,380.000000,,2013-01-19 18:13:00,
2013-01-19 11:38:00,66.0,19.0,-100.00,North,10,14.0,23.0,16,0.00,,,0.00,542.000000,,2013-01-19 18:38:00,
2013-01-19 11:46:00,66.0,19.0,-100.00,North,10,14.0,23.0,16,0.00,,,0.00,542.000000,,2013-01-19 18:46:00,
2013-01-19 11:59:00,66.0,19.0,-100.00,North,10,14.0,23.0,16,0.00,,,0.00,542.000000,,2013-01-19 18:59:00,
2013-01-19 12:05:00,66.0,19.0,-100.00,North,10,14.0,23.0,16,0.00,,,0.00,542.000000,,2013-01-19 19:05:00,
2013-01-19 12:14:00,66.0,19.0,-100.00,North,10,14.0,23.0,16,0.00,,,0.00,542.000000,,2013-01-19 19:14:00,
2013-01-19 12:49:00,68.0,19.0,-100.00,NNE,12,13.0,21.0,15,0.00,,,-99.99,648.000000,,2013-01-19 19:49:00,
2013-01-19 12:55:00,68.0,19.0,-100.00,NNE,12,13.0,21.0,15,0.00,,,-99.99,648.000000,,2013-01-19 19:55:00,
2013-01-19 13:07:00,68.0,19.0,-100.00,NNE,12,13.0,21.0,15,0.00,,,-99.99,648.000000,,2013-01-19 20:07:00,
2013-01-19 13:14:00,68.0,19.0,-100.00,NNE,12,13.0,21.0,15,0.00,,,-99.99,648.000000,,2013-01-19 20:14:00,
2013-01-19 13:50:00,70.0,19.0,-100.00,NNE,21,11.0,20.0,14,0.00,,,0.00,690.000000,,2013-01-19 20:50:00,
2013-01-19 13:56:00,70.0,19.0,-100.00,NNE,21,11.0,20.0,14,0.00,,,0.00,690.000000,,2013-01-19 20:56:00,
2013-01-19 14:04:00,70.0,19.0,-100.00,NNE,21,11.0,20.0,14,0.00,,,0.00,690.000000,,2013-01-19 21:04:00,
2013-01-19 14:13:00,70.0,19.0,-100.00,NNE,21,11.0,20.0,14,0.00,,,0.00,690.000000,,2013-01-19 21:13:00,
2013-01-19 14:53:00,72.0,20.0,-100.00,North,4,10.0,18.0,14,0.00,,,0.00,660.000000,,2013-01-19 21:53:00,
2013-01-19 15:07:00,72.0,20.0,-100.00,North,4,10.0,18.0,14,0.00,,,0.00,660.000000,,2013-01-19 22:07:00,
2013-01-19 15:15:00,72.0,20.0,-100.00,North,4,10.0,18.0,14,0.00,,,0.00,660.000000,,2013-01-19 22:15:00,
2013-01-19 15:49:00,73.0,21.0,-100.00,North,356,10.0,17.0,14,0.00,,,0.00,558.000000,,2013-01-19 22:49:00,
2013-01-19 15:57:00,73.0,21.0,-100.00,North,356,10.0,17.0,14,0.00,,,0.00,558.000000,,2013-01-19 22:57:00,
2013-01-19 16:13:00,73.0,21.0,-100.00,North,356,10.0,17.0,14,0.00,,,0.00,558.000000,,2013-01-19 23:13:00,
2013-01-19 16:49:00,72.0,20.0,-100.00,North,4,10.0,16.0,14,0.00,,,0.00,389.000000,,2013-01-19 23:49:00,
2013-01-19 17:05:00,72.0,20.0,-100.00,North,4,10.0,16.0,14,0.00,,,0.00,389.000000,,2013-01-20 00:05:00,
2013-01-19 17:13:00,72.0,20.0,-100.00,North,4,10.0,16.0,14,0.00,,,0.00,389.000000,,2013-01-20 00:13:00,
2013-01-19 17:38:00,70.0,20.0,-100.00,North,1,9.0,14.0,15,0.00,,,0.00,182.000000,,2013-01-20 00:38:00,
2013-01-19 17:47:00,70.0,20.0,-100.00,North,1,9.0,14.0,15,0.00,,,0.00,182.000000,,2013-01-20 00:47:00,
2013-01-19 17:55:00,70.0,20.0,-100.00,North,1,9.0,14.0,15,0.00,,,0.00,182.000000,,2013-01-20 00:55:00,
2013-01-19 18:03:00,70.0,20.0,-100.00,North,1,9.0,14.0,15,0.00,,,0.00,182.000000,,2013-01-20 01:03:00,
2013-01-19 18:15:00,70.0,20.0,-100.00,North,1,9.0,14.0,15,0.00,,,0.00,182.000000,,2013-01-20 01:15:00,
2013-01-19 18:39:00,67.0,21.0,-100.00,North,3,6.0,12.0,17,0.00,,,-99.99,39.000000,,2013-01-20 01:39:00,
2013-01-19 18:50:00,67.0,21.0,-100.00,North,3,6.0,12.0,17,0.00,,,-99.99,39.000000,,2013-01-20 01:50:00,
2013-01-19 19:02:00,67.0,21.0,-100.00,North,3,6.0,12.0,17,0.00,,,-99.99,39.000000,,2013-01-20 02:02:00,
2013-01-19 19:13:00,67.0,21.0,-100.00,North,3,6.0,12.0,17,0.00,,,-99.99,39.000000,,2013-01-20 02:13:00,
2013-01-19 19:38:00,64.0,20.0,-100.00,North,3,6.0,8.0,18,0.00,,,0.00,1.000000,,2013-01-20 02:38:00,
2013-01-19 19:45:00,64.0,20.0,-100.00,North,3,6.0,8.0,18,0.00,,,0.00,1.000000,,2013-01-20 02:45:00,
2013-01-19 19:58:00,64.0,20.0,-100.00,North,3,6.0,8.0,18,0.00,,,0.00,1.000000,,2013-01-20 02:58:00,
2013-01-19 20:05:00,64.0,20.0,-100.00,North,3,6.0,8.0,18,0.00,,,0.00,1.000000,,2013-01-20 03:05:00,
2013-01-19 20:13:00,64.0,20.0,-100.00,North,3,6.0,8.0,18,0.00,,,0.00,1.000000,,2013-01-20 03:13:00,
2013-01-19 20:39:00,59.0,24.0,-100.00,West,275,0.0,8.0,26,0.00,,,0.00,1.000000,,2013-01-20 03:39:00,
2013-01-19 20:46:00,59.0,24.0,-100.00,West,275,0.0,8.0,26,0.00,,,0.00,1.000000,,2013-01-20 03:46:00,
2013-01-19 20:56:00,59.0,24.0,-100.00,West,275,0.0,8.0,26,0.00,,,0.00,1.000000,,2013-01-20 03:56:00,
2013-01-19 21:04:00,59.0,24.0,-100.00,West,275,0.0,8.0,26,0.00,,,0.00,1.000000,,2013-01-20 04:04:00,
2013-01-19 21:14:00,59.0,24.0,-100.00,West,275,0.0,8.0,26,0.00,,,0.00,1.000000,,2013-01-20 04:14:00,
2013-01-19 21:45:00,61.0,21.0,-100.00,North,350,5.0,6.0,21,0.00,,,0.00,1.000000,,2013-01-20 04:45:00,
2013-01-19 21:55:00,61.0,21.0,-100.00,North,350,5.0,6.0,21,0.00,,,0.00,1.000000,,2013-01-20 04:55:00,
2013-01-19 22:03:00,61.0,21.0,-100.00,North,350,5.0,6.0,21,0.00,,,0.00,1.000000,,2013-01-20 05:03:00,
2013-01-19 22:12:00,61.0,21.0,-100.00,North,350,5.0,6.0,21,0.00,,,0.00,1.000000,,2013-01-20 05:12:00,
2013-01-19 22:33:00,54.0,25.0,-100.00,NW,312,2.0,6.0,32,0.00,,,0.00,1.000000,,2013-01-20 05:33:00,
2013-01-19 22:43:00,54.0,25.0,-100.00,NW,312,2.0,6.0,32,0.00,,,0.00,1.000000,,2013-01-20 05:43:00,
2013-01-19 22:53:00,54.0,25.0,-100.00,NW,312,2.0,6.0,32,0.00,,,0.00,1.000000,,2013-01-20 05:53:00,
2013-01-19 23:02:00,54.0,25.0,-100.00,NW,312,2.0,6.0,32,0.00,,,0.00,1.000000,,2013-01-20 06:02:00,
2013-01-19 23:11:00,54.0,25.0,-100.00,NW,312,2.0,6.0,32,0.00,,,0.00,1.000000,,2013-01-20 06:11:00,
2013-01-19 23:33:00,53.0,23.0,-100.00,NW,313,1.0,7.0,31,0.00,,,0.00,1.000000,,2013-01-20 06:33:00,
2013-01-19 23:43:00,53.0,23.0,-100.00,NW,313,1.0,7.0,31,0.00,,,0.00,1.000000,,2013-01-20 06:43:00,
2013-01-19 23:53:00,53.0,23.0,-100.00,NW,313,1.0,7.0,31,0.00,,,0.00,1.000000,,2013-01-20 06:53:00,